Location: Fourdebecques
(50.6706°N, 2.1074°E)
Time: 15:21:41
(UTC+00:00)

Daily predictions for brighter satellites

Satellite Brightness Start Highest point End
(mag) Time Altitude Azimuth Time Altitude Azimuth Time Altitude Azimuth
CZ-4 R/B 1.8 19:56:27 10° S 20:00:01 56° W 20:03:37 10° NNW
Cosmos 1850 Rocket 4.3 19:55:37 10° NNW 20:00:41 52° ENE 20:05:43 10° SE
CZ-4B R/B 4.4 19:59:22 10° ESE 20:01:32 16° ENE 20:03:44 10° NNE
Cosmos 1782 4.4 19:59:55 10° ESE 20:01:55 15° E 20:03:54 10° NE
ASTEX 1 3.7 20:01:22 10° S 20:06:18 75° W 20:11:18 10° N
SPOT 5 4.2 20:02:28 10° SSW 20:06:24 35° W 20:10:26 10° NNW
Cosmos 2056 Rocket 3.7 20:04:10 10° SSW 20:09:34 86° WNW 20:14:59 10° NNE
CZ-4B R/B 3.4 20:04:20 10° SSE 20:10:01 88° WSW 20:15:42 10° NNW
Cosmos 1833 Rocket 2.7 20:04:58 10° SSW 20:10:33 76° ESE 20:16:11 10° NNE
Cosmos 1110 Rocket 4.3 20:06:04 10° S 20:11:04 45° ESE 20:16:07 10° NE
Cosmos 1802 Rocket 4.4 20:05:52 10° SSE 20:11:40 44° E 20:17:27 10° NNE
Cosmos 1624 Rocket 4.1 20:07:21 10° SSW 20:12:32 84° WNW 20:17:44 10° NNE
Terra 2.0 20:09:31 10° S 20:14:12 77° WSW 20:18:56 10° NNW
Gbstr 26 Del rocket 3.3 20:08:57 10° WNW 20:14:20 82° SSW 20:18:42 10° ESE
Cosmos 2360 Rocket 4.4 20:12:18 10° N 20:15:37 16° NNE 20:18:56 10° ENE
Sich 1 Rocket 3.7 20:12:25 10° S 20:16:40 54° E 20:20:57 10° NNE
SJ 16-02 3.9 20:16:50 10° NW 20:19:40 18° W 20:22:29 10° SW
CZ-2C R/B 4.2 20:23:49 10° E 20:25:18 14° ENE 20:26:48 10° NNE
USA 229 DEB 4.4 20:18:10 10° NW 20:25:31 61° SW 20:33:36 10° SSE
USA 229 4.4 20:18:12 10° NW 20:25:35 62° SW 20:33:41 10° SSE
Cosmos 1743 2.6 20:23:16 10° N 20:26:10 40° ENE 20:28:34 13° SE
SKYMED 3 4.3 20:26:06 10° NNE 20:30:04 89° ESE 20:34:01 10° SSW
Cosmos 44 Rocket 3.8 20:26:24 10° S 20:31:07 41° ESE 20:35:59 10° NE
ISS -2.4 20:29:26 10° S 20:31:54 19° SE 20:34:23 10° E
Cosmos 1459 Rocket 4.0 20:26:22 10° S 20:32:36 80° E 20:38:47 10° NNE
Cosmos 2219 Rocket 4.5 20:30:04 10° N 20:33:04 14° NNE 20:36:04 10° ENE
Cosmos 2100 Rocket 4.1 20:29:57 10° S 20:36:10 90° WNW 20:42:31 10° N
Ariane Rocket 3.7 20:32:21 13° SE 20:36:34 40° ENE 20:41:17 10° N
ADEOS 4.2 20:34:17 10° S 20:39:23 56° W 20:44:33 10° NNW
ATLAS 2AS CENTAUR R/B 3.1 20:32:49 10° SW 20:39:44 69° NW 20:46:33 10° NE
Cosmos 2369 4.2 20:36:06 10° NNW 20:41:42 52° NE 20:46:24 15° SE
BREEZE-M DEB (TANK) 3.8 20:39:02 10° W 20:41:52 39° SSW 20:47:10 14° SE
SL-4 R/B 3.3 20:38:52 10° W 20:42:05 26° SW 20:44:44 13° SSE
Spot 2 Rocket 3.6 20:37:26 10° SSE 20:42:27 79° WSW 20:47:31 10° NNW
Cosmos 2322 Rocket 4.1 20:39:27 10° NNW 20:43:39 21° NE 20:47:51 10° E
MOS 1-B 4.4 20:40:17 10° SSE 20:46:04 81° WSW 20:51:56 10° NNW
Cosmos 2082 Rocket 2.9 20:41:42 10° S 20:46:47 34° ESE 20:51:52 10° NE
Okean 2 Rocket 3.6 20:42:31 10° SSW 20:46:56 62° WNW 20:51:25 10° N
USA 305 2.8 20:43:56 10° WNW 20:48:02 68° NNE 20:51:08 14° E
Cosmos 2151 4.3 20:47:11 10° NNE 20:50:35 24° ENE 20:52:53 15° ESE
Cosmos 1626 Rocket 4.3 20:53:23 10° N 20:57:28 38° ENE 21:00:04 19° SE
Cosmos 1607 4.2 20:51:51 10° S 20:57:36 43° ESE 21:03:28 10° NE
Cosmos 2233 Rocket 4.1 20:51:39 10° S 20:57:45 61° E 21:03:48 10° NNE
Cosmos 2228 3.0 20:55:36 14° S 20:58:58 54° E 21:02:59 10° NNE
USA 186 2.4 20:58:27 14° SSW 21:00:28 40° W 21:03:04 10° NNW
Timation 1 Rocket 4.4 20:55:01 10° SSW 21:01:01 89° ESE 21:07:05 10° NNE
Okean O Rocket 2.2 20:57:34 10° S 21:01:45 52° W 21:05:59 10° NNW
Tsikada Rocket 4.0 20:57:31 10° N 21:03:45 78° E 21:08:51 16° SSE
Cosmos 1697 Rocket 4.1 21:01:19 10° NW 21:06:15 32° WSW 21:11:09 10° SSW
CZ-4C R/B 1.7 21:04:03 10° SW 21:08:16 80° SE 21:13:46 10° NE
Cosmos 1725 Rocket 4.1 21:02:31 10° S 21:08:49 83° W 21:15:07 10° N
Cosmos 1452 Rocket 3.5 21:04:06 10° SSW 21:09:20 87° ESE 21:14:36 10° NNE
COSMOS 2406 4.3 21:07:29 19° SE 21:10:00 26° ESE 21:14:40 10° NE
SL-16 R/B 3.1 21:05:31 10° NNW 21:10:53 40° NE 21:14:58 16° ESE
Okean-O 3.7 21:10:35 10° S 21:14:42 41° W 21:18:52 10° NNW
ATLAS 3B R/B 3.7 21:07:34 10° NW 21:14:48 44° WSW 21:20:47 14° S
Cosmos 1892 Rocket 4.4 21:15:36 10° NNW 21:19:45 46° W 21:23:28 12° SSW
CZ-4B R/B 3.3 21:19:07 20° SSE 21:22:23 82° WSW 21:27:13 10° NNW
Cosmos 2333 Rocket 2.9 21:18:22 10° NNW 21:23:49 44° NE 21:27:39 19° ESE
Cosmos 1455 Rocket 3.8 21:21:02 10° SSW 21:25:21 54° WNW 21:29:42 10° N
Cosmos 1302 Rocket 3.9 21:21:52 10° SSW 21:27:01 78° ESE 21:32:14 10° NNE
Cosmos 2098 Rocket 4.4 21:25:32 22° ESE 21:27:22 28° E 21:31:20 10° NNE
Cosmos 2016 Rocket 4.3 21:21:42 10° SSW 21:27:57 67° WNW 21:34:10 10° N
Cosmos 1980 Rocket 3.1 21:29:12 10° NW 21:34:33 42° WSW 21:38:33 17° S
CZ-4B R/B 3.4 21:33:11 21° SSW 21:34:59 41° W 21:38:14 10° NNW
Cosmos 2061 Rocket 4.0 21:29:50 12° S 21:35:41 88° W 21:42:00 10° N
Cosmos 1782 3.5 21:32:58 11° SSW 21:36:08 45° WNW 21:39:33 10° N
Cosmos 1544 Rocket 3.6 21:35:33 28° SSE 21:37:40 61° E 21:41:57 10° NNE
Cosmos 724 4.3 21:32:10 10° SW 21:38:13 89° SE 21:44:10 10° NE
SPOT 3 Rocket 4.1 21:34:29 17° S 21:38:18 53° W 21:43:21 10° NNW
NOSS 3-3 (A) 3.8 21:34:27 12° SSW 21:39:07 52° ESE 21:45:04 10° NE
Cosmos 1933 3.4 21:44:19 38° SE 21:45:21 52° E 21:49:04 10° NNE
Cosmos 2084 Rocket 3.5 21:44:39 10° NW 21:48:49 61° SW 21:50:19 36° SSE
Cosmos 1758 Rocket 3.7 21:47:15 10° NNW 21:51:37 72° W 21:53:42 30° S
Helios 1B rocket 3.2 21:51:51 27° E 21:52:40 31° ENE 21:55:48 10° N
CZ-2C R/B 3.1 21:55:17 30° SW 21:55:50 33° W 21:58:24 10° NNW
Cosmos 1464 Rocket 4.3 21:53:23 28° SSE 21:56:21 51° E 22:02:17 10° NNE
Gbstr 26 Del rocket 4.1 21:56:06 10° W 22:00:09 28° SW 22:00:52 26° SSW
Cosmos 1513 Rocket 4.4 21:56:21 25° S 22:00:12 76° E 22:06:23 10° NNE
Cosmos 2360 Rocket 2.8 21:55:33 10° NNW 22:01:03 48° NE 22:04:14 24° ESE
Meteor 2-10 4.4 21:58:39 10° N 22:04:19 62° ENE 22:06:57 32° SE
NOSS 3-3 (C) 3.6 22:02:52 17° SSW 22:06:58 66° SE 22:13:13 10° NE
Cosmos 1825 Rocket 3.9 22:03:43 10° N 22:07:57 52° ENE 22:09:11 39° SE
ALOS 2 4.2 22:06:32 19° E 22:08:14 25° ENE 22:11:49 10° N
ISS -3.9 22:04:58 10° WSW 22:08:14 70° S 22:08:14 70° S
ARIANE 5 R/B 3.9 22:07:11 23° E 22:08:49 30° ENE 22:12:42 10° N
Geosat 3.9 22:04:03 10° NNE 22:09:05 80° ESE 22:12:24 22° SSW
Cosmos 1072 Rocket 4.5 22:08:18 30° S 22:11:33 70° E 22:17:51 10° NNE
USA 305 3.1 22:09:33 10° WNW 22:13:09 39° SW 22:13:09 39° SW
Ariane Rocket 4.3 22:12:25 18° SSW 22:15:31 33° W 22:20:05 10° NNW
BREEZE-M R/B 4.3 22:06:16 10° W 22:15:33 89° N 22:21:13 10° E
Cosmos 1602 Rocket 3.6 22:13:00 10° NNW 22:17:17 67° W 22:18:42 40° SSW
Cosmos 2219 Rocket 3.0 22:13:11 10° NNW 22:18:34 43° NE 22:21:48 22° ESE
DEBRIS 4.0 22:14:54 10° W 22:18:47 82° S 22:33:09 10° E
NOSS 3-4 (A) 3.9 22:14:36 10° NW 22:21:09 76° NE 22:26:01 24° SE
NOSS 3-4 (C) 3.9 22:15:12 10° NW 22:21:47 75° NE 22:26:40 24° SE
Cosmos 1437 Rocket 2.8 22:21:47 42° SW 22:22:43 60° WNW 22:26:16 10° N
Cosmos 1461 3.7 22:26:32 29° E 22:26:32 29° E 22:28:53 10° NE
Cosmos 2151 4.0 22:23:39 10° NNW 22:27:29 37° W 22:28:56 27° SW
Cosmos 1428 Rocket 4.4 22:22:13 10° N 22:28:32 85° E 22:31:20 35° SSE
Cosmos 2322 Rocket 2.2 22:22:57 10° NNW 22:28:39 76° ENE 22:31:03 36° SE
Cosmos 2034 Rocket 4.2 22:27:37 34° SSE 22:30:21 61° E 22:36:36 10° NNE
Cosmos 2082 Rocket 3.0 22:25:07 10° SW 22:30:40 50° NW 22:36:15 10° NNE
GRACE-FO 1 4.5 22:30:57 63° SW 22:31:20 71° W 22:34:50 10° N
GRACE-FO 2 4.5 22:31:26 62° SW 22:31:48 70° W 22:35:17 10° N
Cosmos 220 Rocket 3.7 22:32:36 59° SSE 22:33:02 65° ESE 22:37:06 10° NNE
Cosmos 1707 4.2 22:38:21 18° ENE 22:38:21 18° ENE 22:39:34 10° NE
Meteor 1-5 Rocket 4.3 22:32:01 10° NNW 22:37:39 71° W 22:40:03 36° S
Cosmos 1536 3.8 22:34:28 10° N 22:37:47 31° ENE 22:38:06 30° E
USA 234 3.4 22:33:03 10° ENE 22:39:25 50° SE 22:42:49 27° SSW
COSMOS 2428 4.4 22:36:59 10° NNW 22:41:51 28° NE 22:46:33 11° E
Okean 1-7 Rocket 3.9 22:41:38 10° NNW 22:45:59 57° W 22:47:08 43° SSW
Cosmos 1763 Rocket 4.0 22:45:39 40° SE 22:46:35 44° ESE 22:51:35 10° NE
Cosmos 1503 Rocket 3.9 22:42:11 10° NNW 22:47:26 86° ENE 22:49:02 46° SSE
Cosmos 1777 Rocket 4.0 22:42:27 10° NNW 22:47:42 76° WSW 22:49:16 46° S
Cosmos-2242 3.3 22:47:28 44° ESE 22:47:43 44° E 22:51:40 10° NNE
Cosmos 2278 3.9 22:42:05 10° NW 22:47:44 62° WSW 22:49:38 40° S
Helios 1A 3.1 22:43:51 10° N 22:47:44 62° WNW 22:48:44 44° SW
Cosmos 990 Rocket 4.1 22:45:37 10° NNW 22:50:47 67° ENE 22:52:30 41° SE
Cosmos 1805 4.0 22:47:59 10° NNW 22:50:57 32° W 22:50:59 32° W
COSMOS 2406 3.6 22:49:26 17° SW 22:53:51 64° NW 22:59:35 10° NNE
Cosmos 1606 Rocket 3.7 22:52:45 45° SW 22:53:55 67° WNW 22:58:15 10° N
SL-16 R/B 2.8 22:49:41 10° NW 22:55:02 44° WSW 22:56:47 34° SSW
ARGOS Delta rocket 4.5 22:50:16 10° NNE 22:55:03 44° E 22:56:07 39° SE
USA 290 3.6 22:56:48 30° ENE 22:56:48 30° ENE 22:58:43 10° NE
CZ-4C R/B 3.9 22:52:49 10° W 22:57:07 32° NNW 23:02:33 10° NE
Cosmos 1354 Rocket 4.0 22:52:22 10° NNW 22:57:39 75° ENE 22:59:20 44° SE
Cosmos 1486 Rocket 4.3 22:54:18 10° NNW 22:59:25 55° WSW 23:00:50 42° SSW
Cosmos 1634 Rocket 4.2 22:57:50 38° SSE 22:59:58 57° E 23:06:01 10° NNE
Nadezhda 4 Rocket 4.4 22:54:14 10° NNW 23:00:10 53° W 23:02:51 31° SSW
Cosmos 1766 3.1 22:58:28 10° N 23:01:17 59° NNE 23:01:17 59° NNE
Cosmos 1470 3.9 23:01:26 10° NNE 23:04:12 27° ENE 23:04:12 27° ENE
Cosmos 2098 Rocket 4.2 23:02:09 26° SW 23:04:34 44° WNW 23:08:58 10° N
SeaSat 1 3.5 23:03:53 21° ESE 23:06:36 39° NE 23:11:10 10° NNW
Cosmos 1726 Rocket 3.5 23:06:21 54° SW 23:07:01 65° WNW 23:11:04 10° N
Cosmos 2333 Rocket 3.0 23:02:48 10° NW 23:08:05 40° WSW 23:09:39 33° SW
Cosmos 2221 3.9 23:09:57 25° E 23:10:07 25° E 23:13:33 10° NNE
Cosmos 1076 Rocket 3.9 23:06:50 10° NNW 23:11:00 50° W 23:11:38 45° SW
Meteor 2-2 Rocket 4.2 23:10:21 45° SSE 23:12:03 70° E 23:17:45 10° NNE
Cosmos 1842 4.3 23:13:51 28° ENE 23:13:51 28° ENE 23:15:54 10° NNE
BREEZE-M DEB (TANK) 3.5 23:08:55 10° W 23:17:11 69° S 23:22:05 10° E
CZ-2C R/B 3.4 23:16:22 29° ESE 23:18:32 44° ENE 23:23:30 10° N
Cosmos 1833 4.2 23:17:41 47° S 23:19:12 66° ESE 23:24:48 10° NE
Spot 4 4.0 23:23:21 50° SSW 23:24:17 61° WSW 23:29:03 10° NNW
Okean 1 4.2 23:23:58 32° W 23:24:24 34° WNW 23:27:42 10° N
KORONAS-FOTON 3.9 23:25:14 57° NE 23:25:14 57° NE 23:28:07 10° NNE
Cosmos 2026 Rocket 4.3 23:18:34 10° NNW 23:24:50 61° W 23:27:17 37° SSW
Helios 1B rocket 3.8 23:25:48 22° W 23:25:48 22° W 23:28:31 10° NW
SAR-Lupe-2 3.7 23:26:37 62° NW 23:26:37 62° NW 23:29:31 10° NNW
Cosmos 1975 3.3 23:24:39 10° N 23:28:11 43° ENE 23:28:17 43° E
Aureole 1 Rocket 3.7 23:24:31 10° NNW 23:29:48 85° ENE 23:32:03 42° SSE
Cosmos 2266 Rocket 4.5 23:26:02 10° N 23:31:53 49° ENE 23:34:28 31° SE
Cosmos 2322 4.2 23:26:46 10° NNW 23:32:25 57° NE 23:35:16 28° ESE
Cosmos 2297 Rocket 4.1 23:33:58 14° ESE 23:35:01 15° E 23:38:06 10° ENE
Cosmos 44 3.6 23:30:26 10° NW 23:35:52 72° NE 23:38:07 35° ESE
Cosmos 1271 Rocket 3.1 23:38:07 45° ENE 23:38:07 45° ENE 23:40:54 10° NNE
Cosmos 372 Rocket 3.9 23:37:01 10° NNW 23:42:11 81° ENE 23:43:34 49° SE
RESURS DK-1 3.4 23:39:14 10° NNW 23:43:00 40° NE 23:44:14 31° E
Cosmos 1937 Rocket 4.1 23:38:24 10° NNW 23:43:26 49° ENE 23:45:41 29° ESE
ALOS 2 3.1 23:43:55 43° WSW 23:44:21 45° W 23:48:36 10° NNW
Cosmos 2360 Rocket 3.0 23:39:48 10° NW 23:44:54 35° WSW 23:45:58 33° SW
ARIANE 5 R/B 3.4 23:44:33 36° WSW 23:45:01 37° W 23:49:10 10° NNW
Meteor 1-11 Rocket 4.1 23:41:41 10° N 23:47:22 58° ENE 23:49:32 36° SE
GP-B 3.2 23:44:19 10° N 23:48:40 60° E 23:49:14 54° SE
Cosmos 2058 Rocket 3.5 23:48:53 45° WSW 23:49:41 51° WNW 23:53:56 10° N
Cosmos 468 Rocket 3.9 23:51:08 53° S 23:52:22 76° ESE 23:57:38 10° NNE
